www.pogodaiklimat.ru

Погода и климат >> Архив погоды >> Таиланд >> Тхонг Пха Пхум


ПОГОДА в Тхонг Пха Пхум

  • Прогноз погоды в Тхонг Пха Пхум
  • Монитор погоды в Тхонг Пха Пхум

АРХИВ ПОГОДЫ в Тхонг Пха Пхум

Время (UTC), дата Ветер
(напр.,м/с)
 
Видим.   Явления Облачность Т
(С)
Тd
(С)
f
(%)
Тe
(С)
Тes
(С)
Комфортность P
(гПа)
Po
(гПа)
Тmin
(С)
Tmax
(С)
R
(мм)
R24
(мм)
S
(см)
09 11.02 штиль 0 5000 м мгла ясно +36.3 +21.9 43 +44 +52 опасность
перегрева
1010.3 999.3
12 11.02 штиль 0 5000 м мгла 5/3 600 м
[Sc Cs]
+30.5 +22.4 62 +40 +40 очень
душно
1011.9 1000.7 +37.0
15 11.02 С 6 4000 м дымка 8/4 600 м
[Sc Cs]
+27.0 +20.1 66 +33 +33 очень
душно
1015.9 1004.5
18 11.02 штиль 0 4000 м дымка 8/4 600 м
[Sc Cs]
+25.0 +21.2 79 +32 +32 очень
душно
1015.5 1004.0
21 11.02 штиль 0 4000 м дымка 3/0
[Cs]
+24.0 +20.9 83 +30 +30 очень
душно
1015.0 1003.5
00 12.02 штиль 0 4000 м дымка 5/3 600 м
[Sc Ac trans Cs]
+23.0 +21.5 91 +31 +31 очень
душно
1016.6 1005.0 +22.7
03 12.02 штиль 0 4000 м дымка 3/0
[Cs]
+28.5 +21.8 67 +37 +50 очень
душно
1018.6 1007.2
06 12.02 штиль 0 4000 м мгла 5/3 600 м
[Cb calv Cs]
+34.5 +21.2 46 +42 +57 опасность
перегрева
1015.6 1004.5
09 12.02 штиль 0 4000 м мгла 5/3 600 м
[Cb calv Cs]
+35.3 +20.3 42 +42 +47 опасность
перегрева
1012.6 1001.5
12 12.02 штиль 0 4000 м мгла 3/0
[Cs]
+30.5 +22.8 64 +40 +40 очень
душно
1013.7 1002.5 +36.1
15 12.02 штиль 0 4000 м дымка 3/0
[Cs]
+28.0 +22.4 72 +37 +37 очень
душно
1017.1 1005.7
18 12.02 штиль 0 4000 м дымка 3/0
[Cs]
+25.2 +21.9 82 +32 +32 очень
душно
1017.1 1005.6
21 12.02 штиль 0 4000 м дымка 3/0
[Cs]
+23.8 +21.1 85 +30 +30 очень
душно
1016.3 1004.7
00 13.02 штиль 0 5000 м дымка 3/0
[Cs]
+23.0 +20.9 88 +30 +31 очень
душно
1017.3 1005.7 +22.7
03 13.02 штиль 0 5000 м дымка 3/0
[Cs]
+28.3 +22.7 72 +38 +51 опасность
солнечного
удара
1017.7 1006.3
06 13.02 штиль 0 5000 м мгла 5/5 600 м
[Cu med, cong]
+35.5 +22.1 46 +44 +56 опасность
перегрева
1014.1 1003.1
09 13.02 штиль 0 5000 м мгла 8/5 600 м
[Cu med, cong Cs]
+35.7 +22.4 46 +45 +48 опасность
перегрева
1011.7 1000.7
12 13.02 штиль 0 5000 м дымка {дождь} 8/5 600 м
[Cu med, cong Cs]
+28.5 +24.9 81 +41 +41 опасность
перегрева
1012.8 1001.5 +36.7 0.2
15 13.02 штиль 0 5000 м дымка 3/0
[Cs]
+27.5 +23.1 77 +37 +37 очень
душно
1014.8 1003.5
18 13.02 штиль 0 5000 м дымка 3/0
[Cs]
+25.2 +22.7 86 +33 +33 очень
душно
1014.2 1002.8
21 13.02 штиль 0 5000 м дымка 3/0
[Cs]
+23.7 +21.9 90 +31 +31 очень
душно
1013.2 1001.7
00 14.02 штиль 0 5000 м дымка 3/3 600 м
[Sc]
+22.8 +21.0 90 +30 +30 очень
душно
1014.2 1002.7 +22.0 0.2
03 14.02 штиль 0 5000 м дымка ясно +28.0 +23.2 75 +38 +53 опасность
солнечного
удара
1015.7 1004.3
06 14.02 штиль 0 5000 м мгла 3/3 600 м
[Cu med, cong]
+35.5 +21.1 43 +43 +59 опасность
перегрева
1012.2 1001.1
09 14.02 штиль 0 5000 м мгла 4/3 600 м
[Sc Cs]
+36.0 +20.8 41 +43 +48 опасность
перегрева
1009.6 998.6
12 14.02 штиль 0 4000 м мгла 4/4 600 м
[Sc]
+35.5 +20.7 42 +42 +42 опасность
перегрева
1011.9 1000.9 +37.0
15 14.02 штиль 0 4000 м дымка 3/3 600 м
[Sc Cs]
+29.0 +22.7 69 +38 +38 очень
душно
1013.4 1002.1
18 14.02 штиль 0 4000 м дымка 3/0
[Cs]
+26.5 +22.8 80 +35 +35 очень
душно
1013.2 1001.8
21 14.02 штиль 0 4000 м дымка 3/0
[Cs]
+24.6 +22.2 87 +32 +32 очень
душно
1012.2 1000.8
00 15.02 штиль 0 4000 м дымка 3/0
[Cs]
+23.5 +22.0 91 +30 +30 очень
душно
1013.9 1002.4 +23.3
03 15.02 штиль 0 4000 м дымка 3/0
[Cs]
+28.3 +22.7 72 +38 +52 опасность
солнечного
удара
1015.4 1004.0
06 15.02 штиль 0 4000 м мгла 3/3 600 м
[Cu med, cong]
+35.0 +21.9 47 +44 +60 опасность
перегрева
1012.3 1001.3
09 15.02 штиль 0 4000 м мгла 3/3 600 м
[Cu med, cong]
+35.5 +20.7 42 +42 +48 опасность
перегрева
1010.1 999.1
12 15.02 штиль 0 4000 м мгла 10/4 600 м
[Cu med, cong Ac lent Cs]
+31.2 +22.9 61 +41 +41 опасность
перегрева
1011.6 1000.4 +36.2
15 15.02 штиль 0 4000 м дымка 10/4 600 м
[Cu med, cong Ac lent Cs]
+28.5 +23.9 76 +39 +39 очень
душно
1015.0 1003.7
18 15.02 штиль 0 4000 м дымка 8/3 600 м
[Cu med, cong Ac lent Cs]
+26.2 +22.2 79 +34 +34 очень
душно
1014.8 1003.4
21 15.02 штиль 0 4000 м дымка 8/3 600 м
[Cu med, cong Ac lent Cs]
+24.2 +22.4 90 +32 +32 очень
душно
1013.8 1002.3
00 16.02 штиль 0 4000 м дымка 8/3 600 м
[Cu med, cong Ac trans Cs]
+23.0 +21.8 93 +31 +31 очень
душно
1014.7 1003.2 +22.7
03 16.02 штиль 0 4000 м дымка 5/3 600 м
[Cu med, cong Cs]
+28.5 +22.9 72 +38 +48 очень
душно
1015.9 1004.5
06 16.02 штиль 0 4000 м мгла 5/3 600 м
[Cu med, cong Cs]
+35.5 +22.5 47 +45 +60 опасность
перегрева
1012.2 1001.1
09 16.02 штиль 0 4000 м мгла 5/3 600 м
[Cb calv Cs]
+34.7 +22.0 48 +43 +48 опасность
перегрева
1009.9 998.8
12 16.02 штиль 0 4000 м мгла 5/3 600 м
[Cb calv Cs]
+30.7 +22.3 61 +40 +40 очень
душно
1010.4 999.2 +35.8
15 16.02 штиль 0 4000 м дымка 5/3 600 м
[Cb calv Cs]
+29.0 +22.7 69 +38 +38 очень
душно
1012.7 1001.4
18 16.02 штиль 0 4000 м дымка 8/3 600 м
[Cu med, cong Ac trans Cs]
+27.5 +22.3 73 +36 +36 очень
душно
1012.6 1001.3
21 16.02 штиль 0 4000 м дымка 8/3 600 м
[Cu med, cong Ac trans Cs]
+25.5 +22.5 83 +33 +33 очень
душно
1011.6 1000.2
00 17.02 штиль 0 5000 м дымка 4/3 600 м
[Sc Cs]
+24.7 +22.9 90 +33 +33 очень
душно
1012.9 1001.4 +24.3
03 17.02 СЗ 4 5000 м дымка 8/4 600 м
[Sc Ac trans Cs]
+28.4 +23.1 73 +38 +41 очень
душно
1014.7 1003.4
06 17.02 С 7 5000 м мгла 4/3 600 м
[Cu med, cong Cs]
+33.6 +19.5 44 +39 +43 очень
душно
1011.9 1000.8
09 17.02 СЗ 4 5000 м мгла 3/3 600 м
[Cu med, cong]
+34.5 +20.1 43 +41 +43 опасность
перегрева
1008.6 997.5
12 17.02 штиль 0 4000 м мгла 3/3 600 м
[Cu med, cong]
+30.0 +20.7 57 +37 +37 очень
душно
1009.6 998.4 +35.5
15 17.02 штиль 0 4000 м дымка 3/0
[Cs]
+26.0 +21.8 78 +33 +33 очень
душно
1011.9 1000.6
18 17.02 штиль 0 4000 м дымка 3/0
[Cs]
+23.5 +21.2 87 +30 +30 очень
душно
1012.3 1000.8
21 17.02 штиль 0 4000 м дымка 3/0
[Cs]
+22.0 +20.5 91 +28 +28 душно 1011.1 999.6
00 18.02 штиль 0 4000 м дымка 3/0
[Cs]
+21.0 +19.4 91 +25 +26 комфорт 1012.4 1000.9 +20.7
03 18.02 штиль 0 5000 м мгла 3/3 600 м
[Cu hum]
+28.5 +21.2 65 +36 +47 очень
душно
1014.7 1003.4
06 18.02 штиль 0 5000 м мгла 3/3 600 м
[Cu med, cong]
+35.3 +20.4 42 +42 +58 опасность
перегрева
1011.8 1000.7

 

Местоположение метеостанции Тхонг Пха Пхум (Таиланд): широта 14.75 долгота 98.63 высота над уровнем моря 99 м.

В архиве по умолчанию представлена погода в Тхонг Пха Пхум за последнюю неделю. Архивные данные за месяц целиком и за предыдущие месяцы, начиная с января 2011 года, Вы можете получить, выбрав интересующий диапазон дат из раскрывающегося списка и нажав кнопку "Ввод!".


*Определитесь, кто Вы:
робот инопланетянин человек

Внимание! Время в таблицах - всемирное. Для получения местного времени необходимо прибавить поправку, которая равна 7 ч.

Смотрите также архив погоды в соседних городах и на ближайших метеорологических станциях:

Погода в Тавое (Мьянма) (85 км)
Погода в Йе (Мьянма) (99 км)
Погода в Канчанабури (Таиланд) (126 км)
Погода в У-Тхонг Агромете (Таиланд) (143 км)
Погода в Умпханге (Таиланд) (144 км)
Погода в Суфанбури (Таиланд) (164 км)
Погода в Накхонпатхоме (Таиланд) (166 км)
Погода в Утай Тани (Таиланд) (167 км)
Погода в Чайнат Агромете (Таиланд) (172 км)
Погода в Накхон Саван (Таиланд) (201 км)

Пояснения к столбцам:

Ветер - указаны скорость ветра в м/с - средняя за 10 мин, порывы в срок и между сроками (в фигурных скобках) и направление, откуда дует ветер: С - северный, СВ - северо-восточный, В - восточный, ЮВ - юго-восточный, Ю - южный, ЮЗ - юго-западный, З - западный, СЗ - северо-западный.
Видимость - горизонтальная дальность видимости в метрах или километрах. При видимости от 1 до 10 км при отсутствии осадков обычно наблюдается дымка, при ухудшении видимости до 1 км и менее - туман. В сухую погоду видимость может ухудшаться дымом, пылью или мглою.
Явления - указаны атмосферные явления, наблюдавшиеся в срок или в последний час перед сроком; фигурными скобками обозначены явления, наблюдавшиеся между сроками (за 1-3 часа до срока); квадратными скобками обозначены град или гололедные отложения с указанием их диаметра в мм.
Облачность - указаны через наклонную черту общая и нижняя облачность в баллах и высота нижней границы облаков в метрах; квадратными скобками обозначены формы облаков: Ci - перистые, Cs - перисто-слоистые, Cc - перисто-кучевые, Ac - высококучевые, As - высокослоистые, Sc - слоисто-кучевые, Ns - слоисто-дождевые, Cu - кучевые, Cb - кучево-дождевые. Подробнее классификацию облаков см. в Атласе облаков (PDF).
T - Температура воздуха - температура, измеренная на высоте 2 м над землей.
Td - Температура точки росы - температура, при понижении до которой содержащийся в воздухе водяной пар достигнет насыщения.
f - Относительная влажность воздуха - влажноcть воздуха, измеренная на высоте 2 м над землей.
Te - Эффективная температура - температура, которую ощущает одетый по сезону человек в тени. Характеристика душности погоды. При расчете учитывается влияние влажности воздуха и скорости ветра на теплоощущения человека.
Tes - Эффективная температура на солнце - температура, которую ощущает человек, с поправкой на солнечный нагрев. Характеристика знойности погоды. Зависит от высоты солнца над горизонтом, облачности и скорости ветра. Ночью, в пасмурную погоду, а также при ветре 12 м/с и более поправка равна нулю.
P - Атмосферное давление - приведенное к уровню моря атмосферное давление.
Po - Атмосферное давление - измеренное на уровне метеостанции атмосферное давление.
Tmin - Минимальная температура - минимум температуры воздуха на высоте 2 м над землей.
Tmax - Максимальная температура - максимум температуры воздуха на высоте 2 м над землей.
R - Количество осадков - Количество выпавших осадков за период времени, мм. При наведении курсора мыши на число - период времени, за который выпало указанное количество осадков.
R24 - Количество осадков - Количество выпавших осадков за 24 часа, мм.
S - Снежный покров - Высота снежного покрова, см. При наведении курсора мыши на число - состояние снежного покрова и степень покрытия местности в баллах.